Track STARLINK-3296 now! 10-day predictions STARLINK-3296 is classified as:
1 50168U 21125N 22182.25455121 .00000319 00000-0 38158-4 0 9993 2 50168 53.2160 177.9883 0002296 46.1359 313.9822 15.08835395 33189